STARLINK-37612, 69039

Orbit data source: Space-Track

STARLINK-37612, 69039 is a payload satellite owned by SpaceX/Seattle (US) in SSO that was launched on Wed, 06 May 2026 UTC via an FALCON 9 launch vehicle from the Air Force Western Test Range (AFWTR). Payload-class satellites include a variety of spacecraft equipped with specific instruments for various scientific and technological missions. These include communications satellites like Starlink; space stations such as the ISS; scientific satellites like the Hubble; Earth observation satellites from companies like Planet Labs, Umbra, and HawkEye 360; GPS; miniature CubeSats for education and research; and military/defense satellites.

Loading next visibility...
Identifier
69039, 2026-101Q
Orbit
SSO
Country
Flag of USUS
Related business
Manufacturer
SpaceX/Seattle
Mission
Operational Commercial Communications
Bus & Motor
STARLINK V2MO, Unknown motor
Mass
575 kg wet, ~530 kg dry
Launch date (UTC)
2026-05-06 (3 months ago)
Launch vehicle
FALCON 9
Launch site
Air Force Western Test Range (AFWTR)
Object type
Payload
Rocket body
Debris
Shape & HBR
Box + 2 Pan, 17.7 m
Radar Cross Section
36.964 m², Large (>1 m²)

Expand to show TLE details & history
Last TLE update: 19 hours ago

TLE from 19 hours ago
0 STARLINK-37612
1 69039U 26101Q   26206.32179541  .00014293  00000-0  44436-3 0  9998
2 69039  97.2870  60.5771 0001817  86.8687 273.2764 15.33433726 12414
Epoch: 2026-07-25T07:43Z
TLE epoch observation values (Epoch: 2026-07-25T07:43:23.123Z)
Latitude
0.00002°
Longitude
1.69501°
Altitude
468.618 km
Speed
7.632 km/s
True Right ascension
04h 02m 18s
True Declination
0° 00' 00"
Sunlit
Object was in daylight at epoch
Visualization orbit readout
Latitude
Unknown
Longitude
Unknown
Altitude
Unknown
Speed
Unknown
Apparent Right ascension
Unknown
Apparent Declination
Unknown
Sunlit
N/A
Visualization observer readout
Local Sidereal Time
16:19:09
Azimuth
Unknown
Elevation
Unknown
Doppler factor
Unknown
Orbital elements
Apogee altitude
463.763 km
Perigee altitude
461.277 km
Semi-major axis
6,840.657 km
Eccentricity
0.00018
Inclination
97.287°
RAAN
60.5771°
Arg. of periapsis
86.8687°
True anomaly
273.25561°
Mean anomaly
273.2764°
Eccentric anomaly
273.26601°
Mean motion
3.83616 °/min
Orbital period
93.84 mins
BSTAR
0.00044436
Loading maneuver chart data...
Computing Atmospheric mass density...
Loading historical data...
Loading historical data...
Loading historical data...
Loading historical data...
Loading historical data...
Loading historical data...
Loading historical data...

Documentation

Showing up to 5 results
|